Location: Gettysburg
(39.8310°N, 77.2310°W)
Time: 23:17:40
(UTC-05:00)

ATLAS 2AS CENTAUR R/B - Visible Passes

Search period start: 28 January 2015 00:00
Search period end: 07 February 2015 00:00
Orbit: 915 x 1298 km, 63.7° (Epoch: 23 January)

Date Brightness Start Highest point End Pass type
(mag) Time Alt. Az. Time Alt. Az. Time Alt. Az.
28 Jan 5.3 03:24:38 12° N 03:24:38 12° N 03:25:47 10° NNE visible
28 Jan 5.1 05:13:29 10° NNW 05:17:21 14° NNE 05:21:24 10° NE visible
29 Jan 5.1 04:28:39 10° NNW 04:31:32 12° N 04:34:35 10° NNE visible
29 Jan 4.7 06:19:18 10° NNW 06:25:47 26° NE 06:32:21 10° E visible
30 Jan 5.2 03:45:15 11° N 03:45:40 12° N 03:48:11 10° NNE visible
30 Jan 4.9 05:34:44 10° NNW 05:40:17 20° NNE 05:45:59 10° ENE visible
31 Jan 5.4 03:01:52 11° N 03:01:52 11° N 03:02:37 10° NNE visible
31 Jan 5.1 04:50:07 10° NNW 04:54:37 16° NNE 04:59:19 10° ENE visible
31 Jan 4.1 06:40:28 10° NNW 06:48:06 43° NE 06:55:34 10° ESE visible
01 Feb 5.2 04:05:54 11° N 04:08:50 13° NNE 04:12:28 10° NE visible
01 Feb 4.5 05:55:52 10° NNW 06:02:51 31° NE 06:09:49 10° E visible
02 Feb 5.3 03:22:32 12° N 03:23:00 12° N 03:25:46 10° NNE visible
02 Feb 4.8 05:11:18 10° NNW 05:17:25 23° NNE 05:23:40 10° E visible
03 Feb 5.5 02:39:10 11° NNE 02:39:10 11° NNE 02:39:41 10° NNE visible
03 Feb 5.1 04:26:43 10° NNW 04:31:51 18° NNE 04:37:10 10° ENE visible
03 Feb 3.8 06:17:05 10° NNW 06:24:59 53° NE 06:32:39 10° SE visible
04 Feb 5.2 03:43:16 12° N 03:46:09 15° NNE 03:50:24 10° NE visible
04 Feb 4.3 05:32:27 10° NNW 05:39:50 38° NE 05:47:07 10° ESE visible
05 Feb 5.3 02:59:57 12° N 03:00:20 12° N 03:03:34 10° NNE visible
05 Feb 4.7 04:47:52 10° NNW 04:54:31 28° NE 05:01:13 10° E visible
05 Feb 3.2 06:38:29 10° NW 06:46:39 87° WSW 06:54:28 10° SSE visible
06 Feb 5.5 02:16:40 10° NNE 02:16:40 10° NNE 02:17:03 10° NNE visible
06 Feb 5.0 04:04:07 12° NNW 04:09:02 21° NNE 04:14:55 10° ENE visible
06 Feb 3.5 05:53:43 10° NNW 06:01:48 65° NE 06:09:35 10° SE visible
